KM5R Weather Reports


time (UTC)temp
F
wind
direction
speed
knots
gust
knots
rain 1hr
in
rain 24hr
in
rain mn
in
humidity
%
barometer
mb
20260506222232 60 349 4.3 5.2 0.00 0.06 0.06 78 1014.9
20260506221731 61 312 3.5 4.3 0.00 0.06 0.06 77 1015.0
20260506221228 61 353 5.2 7.8 0.00 0.06 0.06 77 1014.7
20260506220725 60 20 0.9 0.9 0.00 0.06 0.06 78 1014.6
20260506220220 60 319 4.3 7.0 0.00 0.06 0.06 78 1014.8
20260506215717 60 316 0.9 1.7 0.00 0.06 0.06 78 1014.5
20260506215213 60 353 2.6 4.3 0.00 0.06 0.06 78 1015.1
20260506214709 60 18 2.6 4.3 0.00 0.06 0.06 78 1015.0
20260506214207 60 322 2.6 2.6 0.00 0.06 0.06 78 1015.0
20260506213705 59 32 2.6 4.3 0.00 0.06 0.06 78 1014.8
20260506213202 59 335 5.2 7.8 0.00 0.06 0.06 78 1014.8
20260506212659 60 336 7.0 9.6 0.00 0.06 0.06 78 1015.1
20260506212154 60 11 4.3 5.2 0.00 0.06 0.06 78 1015.1
20260506211650 59 9 4.3 5.2 0.00 0.06 0.06 78 1015.1
20260506211146 59 3 5.2 6.1 0.00 0.06 0.06 78 1015.4
20260506210643 59 350 2.6 2.6 0.00 0.06 0.06 79 1015.7
20260506210140 59 0 4.3 5.2 0.00 0.06 0.06 79 1015.3
20260506205638 59 275 6.1 7.8 0.00 0.06 0.06 79 1015.5
20260506205138 59 328 6.1 7.0 0.00 0.06 0.06 79 1015.4
20260506204636 58 291 2.6 2.6 0.00 0.06 0.06 80 1015.4
20260506204133 58 344 5.2 7.0 0.00 0.06 0.06 80 1015.5
20260506203631 57 266 7.0 7.8 0.00 0.06 0.06 80 1015.6
20260506203127 58 311 6.1 8.7 0.00 0.06 0.06 80 1015.7
20260506202626 57 339 3.5 4.3 0.00 0.06 0.06 80 1015.8
20260506202121 57 272 4.3 6.1 0.00 0.06 0.06 80 1015.8
20260506201618 57 308 9.6 11.3 0.00 0.06 0.06 81 1015.9
20260506201115 57 272 3.5 4.3 0.00 0.06 0.06 81 1015.7
20260506200611 56 341 7.0 7.8 0.00 0.06 0.06 81 1015.9
20260506200108 56 324 7.0 8.7 0.00 0.06 0.06 81 1015.9
20260506195605 56 335 7.0 8.7 0.00 0.06 0.06 82 1016.2
20260506195102 56 4 5.2 6.1 0.00 0.06 0.06 82 1016.1
20260506194559 55 319 6.1 7.0 0.00 0.06 0.06 82 1016.3
20260506194055 55 319 8.7 11.3 0.00 0.06 0.06 82 1016.3
20260506193553 55 9 7.0 8.7 0.00 0.06 0.06 82 1016.0
20260506193050 55 7 6.1 7.8 0.00 0.06 0.06 82 1016.1
20260506192547 56 297 7.8 9.6 0.00 0.06 0.06 82 1016.0
20260506192043 55 311 6.1 7.0 0.00 0.06 0.06 83 1016.0
20260506191539 55 251 3.5 4.3 0.00 0.06 0.06 83 1016.1
20260506191035 55 298 5.2 7.8 0.00 0.06 0.06 83 1016.1
20260506190533 55 260 8.7 9.6 0.00 0.06 0.06 83 1015.9
20260506190030 55 324 9.6 12.2 0.00 0.06 0.06 83 1015.8
20260506185527 55 291 5.2 7.8 0.00 0.06 0.06 83 1016.0
20260506185023 55 310 9.6 13.0 0.00 0.06 0.06 83 1016.2
20260506184521 55 352 5.2 7.8 0.00 0.06 0.06 83 1016.2
20260506184018 55 323 10.4 13.0 0.00 0.06 0.06 83 1016.0
20260506183513 56 278 7.8 9.6 0.00 0.06 0.06 83 1016.3
20260506183011 55 314 3.5 4.3 0.00 0.06 0.06 83 1016.2
20260506182508 55 342 2.6 2.6 0.00 0.06 0.06 83 1016.3
20260506182005 55 314 7.0 11.3 0.00 0.06 0.06 83 1016.0
20260506181503 55 303 7.8 9.6 0.00 0.06 0.06 84 1015.8
20260506180959 55 300 2.6 2.6 0.00 0.06 0.06 84 1016.0
20260506180456 55 293 4.3 5.2 0.00 0.06 0.06 84 1016.1
20260506175952 54 285 4.3 5.2 0.00 0.06 0.06 85 1015.9
20260506175449 54 305 9.6 12.2 0.00 0.06 0.06 85 1016.0
20260506174946 54 270 8.7 9.6 0.00 0.06 0.06 85 1016.3
20260506174444 54 314 7.0 7.8 0.00 0.06 0.06 85 1016.0
20260506173940 53 355 7.0 7.8 0.00 0.06 0.06 86 1016.2
20260506173438 53 344 5.2 7.8 0.00 0.06 0.06 86 1015.9
20260506172934 53 298 5.2 6.1 0.00 0.06 0.06 86 1016.2
20260506172432 53 305 9.6 14.8 0.00 0.06 0.06 86 1016.1
20260506171928 53 310 7.0 8.7 0.00 0.06 0.06 87 1016.0
20260506171426 53 305 9.6 12.2 0.00 0.06 0.06 87 1015.9
20260506170924 53 4 1.7 1.7 0.00 0.06 0.06 87 1015.8
20260506170420 52 315 7.0 8.7 0.00 0.06 0.06 87 1016.0
20260506165919 52 274 4.3 5.2 0.00 0.06 0.06 87 1016.1
20260506165416 52 270 7.0 7.8 0.00 0.06 0.06 87 1016.2
20260506164912 52 356 6.1 8.7 0.00 0.06 0.06 87 1015.9
20260506164409 52 322 3.5 5.2 0.00 0.06 0.06 87 1016.0
20260506163908 52 339 5.2 7.0 0.00 0.06 0.06 87 1015.9
20260506163401 53 304 5.2 6.1 0.00 0.06 0.06 87 1016.1
20260506162856 52 339 3.5 5.2 0.00 0.06 0.06 87 1016.1
20260506162355 52 305 5.2 6.1 0.00 0.06 0.06 87 1016.0
20260506161852 52 314 7.0 9.6 0.00 0.06 0.06 87 1014.6
20260506161349 52 345 6.1 7.8 0.00 0.06 0.06 87 1014.9
20260506160847 52 334 4.3 8.7 0.00 0.06 0.06 87 1014.3
20260506160344 53 344 8.7 13.9 0.00 0.06 0.06 87 1014.3
20260506155842 53 331 7.0 11.3 0.00 0.06 0.06 87 1014.6
20260506155338 53 9 5.2 7.0 0.00 0.06 0.06 87 1014.6
20260506153450 52 304 6.1 7.0 0.12 0.05 0.05 86 1015.1
20260506152948 52 51 4.3 7.0 0.12 0.04 0.04 86 1014.9
20260506152444 52 76 4.3 6.1 0.12 0.03 0.03 86 1014.7
20260506151943 52 80 2.6 5.2 0.12 0.02 0.02 85 1014.8
20260506151440 52 40 2.6 4.3 0.07 0.01 0.01 85 1014.8
20260506150938 52 14 3.5 4.3 0.00 0.00 0.00 85 1015.3
20260506150433 52 358 5.2 7.0 0.00 0.00 0.00 84 1015.5
20260506145931 52 263 4.3 6.1 0.00 0.00 0.00 84 1016.0
20260506145427 52 335 8.7 11.3 0.00 0.00 0.00 84 1015.6
20260506144925 52 327 8.7 11.3 0.00 0.00 0.00 84 1015.7
20260506144421 53 288 7.8 9.6 0.00 0.00 0.00 83 1016.0
20260506143919 53 277 5.2 6.1 0.00 0.00 0.00 83 1016.8
20260506143416 53 22 6.1 7.0 0.00 0.00 0.00 83 1015.6
20260506142914 53 291 8.7 13.0 0.00 0.00 0.00 83 1016.3
20260506142412 53 324 11.3 14.8 0.00 0.00 0.00 82 1015.6
20260506141910 54 258 4.3 6.1 0.00 0.00 0.00 82 1015.9
20260506141408 54 326 15.6 20.9 0.00 0.00 0.00 81 1016.0
20260506140906 55 309 9.6 14.8 0.00 0.00 0.00 81 1016.4
20260506140402 55 260 7.0 9.6 0.00 0.00 0.00 81 1016.2
20260506135859 55 354 9.6 13.0 0.00 0.00 0.00 81 1016.1
20260506135356 55 307 7.8 11.3 0.00 0.00 0.00 81 1015.8
20260506134852 55 302 4.3 5.2 0.00 0.00 0.00 82 1015.4
20260506134349 56 331 7.8 9.6 0.00 0.00 0.00 82 1015.1
20260506133846 56 278 6.1 7.8 0.00 0.00 0.00 82 1014.6
20260506133342 56 306 9.6 12.2 0.00 0.00 0.00 82 1014.4
20260506132839 56 355 6.1 8.7 0.00 0.00 0.00 82 1014.4
20260506132336 56 11 4.3 6.1 0.00 0.00 0.00 82 1014.2
20260506131834 56 327 7.0 9.6 0.00 0.00 0.00 82 1014.0
20260506131330 57 312 6.1 8.7 0.00 0.00 0.00 82 1014.0
20260506130828 57 335 3.5 8.7 0.00 0.00 0.00 82 1014.0
20260506130324 57 319 2.6 2.6 0.00 0.00 0.00 82 1013.8
20260506125822 57 319 7.8 12.2 0.00 0.00 0.00 82 1013.8
20260506125320 57 352 8.7 11.3 0.00 0.00 0.00 82 1013.8
20260506124818 58 9 8.7 12.2 0.00 0.00 0.00 81 1013.7
20260506124315 58 304 6.1 8.7 0.00 0.00 0.00 81 1013.4
20260506123812 58 339 7.8 8.7 0.00 0.00 0.00 80 1013.2
20260506123311 58 339 7.0 8.7 0.00 0.00 0.00 80 1013.1
20260506122807 58 315 7.8 11.3 0.00 0.00 0.00 80 1013.3
20260506122306 58 323 7.8 8.7 0.00 0.00 0.00 80 1013.3
20260506121803 59 344 7.8 8.7 0.00 0.00 0.00 80 1013.3
20260506121259 59 298 5.2 6.1 0.00 0.00 0.00 80 1013.0
20260506120756 59 313 4.3 7.0 0.00 0.00 0.00 79 1013.1
20260506120254 59 5 8.7 11.3 0.00 0.00 0.00 79 1012.9
20260506115752 59 344 4.3 5.2 0.00 0.00 0.00 79 1012.8
20260506115250 59 337 5.2 6.1 0.00 0.00 0.00 79 1012.9
20260506114747 59 291 7.0 8.7 0.00 0.00 0.00 79 1012.8
20260506114245 60 328 7.8 9.6 0.00 0.00 0.00 79 1012.8
20260506113743 60 5 2.6 2.6 0.00 0.00 0.00 79 1012.7
20260506113240 60 285 7.0 7.8 0.00 0.00 0.00 79 1013.0
20260506112736 60 278 4.3 5.2 0.00 0.00 0.00 79 1012.9
20260506112234 60 300 2.6 2.6 0.00 0.00 0.00 79 1012.7
20260506111731 60 343 6.1 6.1 0.00 0.00 0.00 79 1012.7
20260506111230 60 337 1.7 1.7 0.00 0.00 0.00 79 1012.6
20260506110726 60 356 2.6 5.2 0.00 0.00 0.00 79 1012.5
20260506110224 60 17 0.9 0.9 0.00 0.00 0.00 79 1012.7
20260506105720 60 345 2.6 4.3 0.00 0.00 0.00 79 1012.2
20260506105217 60 322 6.1 7.8 0.00 0.00 0.00 78 1012.3
20260506104715 61 300 3.5 5.2 0.00 0.00 0.00 78 1012.2
20260506104212 61 289 5.2 7.0 0.00 0.00 0.00 78 1012.0
20260506103709 61 3 4.3 5.2 0.00 0.00 0.00 78 1012.2
20260506103206 61 280 5.2 6.1 0.00 0.00 0.00 78 1012.0
20260506102704 61 8 7.0 7.8 0.00 0.00 0.00 78 1012.1
20260506102202 61 337 2.6 4.3 0.00 0.00 0.00 78 1011.9
20260506101659 61 291 6.1 7.0 0.00 0.00 0.00 78 1012.0
20260506101155 61 332 5.2 6.1 0.00 0.00 0.00 78 1011.7
20260506100653 61 300 7.8 11.3 0.00 0.00 0.00 78 1011.8
20260506100151 61 299 5.2 7.0 0.00 0.00 0.00 78 1011.8
20260506095650 61 282 4.3 6.1 0.00 0.00 0.00 78 1011.6
20260506095146 62 301 4.3 7.0 0.00 0.00 0.00 78 1011.6
20260506094643 62 13 1.7 2.6 0.00 0.00 0.00 78 1011.3
20260506094141 62 311 7.8 11.3 0.00 0.00 0.00 78 1011.4
20260506093639 62 289 4.3 5.2 0.00 0.00 0.00 78 1011.3
20260506093136 62 300 6.1 7.0 0.00 0.00 0.00 78 1011.5
20260506092634 63 304 6.1 7.0 0.00 0.00 0.00 78 1011.4
20260506092131 63 273 4.3 5.2 0.00 0.00 0.00 78 1011.1
20260506091629 63 321 5.2 7.0 0.00 0.00 0.00 78 1011.2
20260506091126 63 277 7.0 8.7 0.00 0.00 0.00 78 1011.1
20260506090624 63 304 2.6 2.6 0.00 0.00 0.00 77 1011.2
20260506090120 64 296 8.7 9.6 0.00 0.00 0.00 78 1011.3
20260506085617 64 286 5.2 6.1 0.00 0.00 0.00 78 1011.4
20260506085113 64 9 0.9 1.7 0.00 0.00 0.00 77 1011.2
20260506084610 64 310 6.1 7.8 0.00 0.00 0.00 77 1011.1
20260506084107 64 268 4.3 5.2 0.00 0.00 0.00 77 1011.1
20260506083604 65 299 7.8 7.8 0.00 0.00 0.00 77 1010.9
20260506083101 65 300 6.1 7.8 0.00 0.00 0.00 77 1011.1
20260506082558 65 323 6.1 7.0 0.00 0.00 0.00 77 1011.0
20260506082053 65 329 5.2 6.1 0.00 0.00 0.00 77 1011.1
20260506081552 65 300 6.1 7.0 0.00 0.00 0.00 77 1011.0
20260506081049 66 313 6.1 6.1 0.00 0.00 0.00 77 1010.8
20260506080547 66 355 2.6 4.3 0.00 0.00 0.00 77 1010.7
20260506073027 66 355 2.6 2.6 0.00 0.00 0.00 77 1010.8
20260506072524 66 298 2.6 2.6 0.00 0.00 0.00 77 1010.7
20260506072022 66 323 3.5 4.3 0.00 0.00 0.00 78 1010.8
20260506071520 66 306 2.6 4.3 0.00 0.00 0.00 78 1010.8
20260506071016 66 349 1.7 2.6 0.00 0.00 0.00 78 1011.0
20260506070514 66 310 1.7 2.6 0.00 0.00 0.00 77 1010.7
20260506062451 67 340 3.5 4.3 0.00 0.00 0.00 77 1011.0
20260506061947 67 303 1.7 2.6 0.00 0.00 0.00 77 1010.8
20260506061444 67 353 0.9 1.7 0.00 0.00 0.00 77 1010.7
20260506060942 67 337 1.7 1.7 0.00 0.00 0.00 76 1010.8
20260506060440 67 337 1.7 2.6 0.00 0.00 0.00 76 1010.7
20260506051412 70 315 2.6 2.6 0.00 0.00 0.00 73 1010.8
20260506050908 70 299 2.6 2.6 0.00 0.00 0.00 72 1010.8
20260506050406 71 284 3.5 5.2 0.00 0.00 0.00 72 1010.8
20260506044856 72 290 5.2 7.0 0.00 0.00 0.00 73 1010.8
20260506044354 72 302 5.2 6.1 0.00 0.00 0.00 73 1010.8
20260506043851 73 323 6.1 7.8 0.00 0.00 0.00 75 1010.8
20260506043348 76 339 0.9 1.7 0.00 0.00 0.00 79 1010.8
20260506042847 76 345 0.9 0.9 0.00 0.00 0.00 79 1010.5
20260506042345 76 287 1.7 1.7 0.00 0.00 0.00 79 1010.7
20260506041844 76 295 1.7 1.7 0.00 0.00 0.00 78 1010.4
20260506041340 76 300 3.5 4.3 0.00 0.00 0.00 78 1010.3
20260506040837 76 259 2.6 2.6 0.00 0.00 0.00 78 1010.3
20260506040335 76 223 1.7 1.7 0.00 0.00 0.00 79 1010.2
20260506035831 76 6 0.9 0.9 0.00 0.00 0.00 79 1010.3
20260506035329 76 293 6.1 7.0 0.00 0.00 0.00 79 1010.1
20260506034825 76 280 4.3 5.2 0.00 0.00 0.00 79 1010.0
20260506034323 76 317 2.6 2.6 0.00 0.00 0.00 78 1009.7
20260506033820 77 322 3.5 4.3 0.00 0.00 0.00 78 1009.4
20260506033317 77 312 2.6 4.3 0.00 0.00 0.00 78 1009.2
20260506032813 77 80 0.0 0.9 0.00 0.00 0.00 77 1009.0
20260506032310 77 153 2.6 4.3 0.00 0.00 0.00 77 1008.8
20260506031807 77 129 2.6 4.3 0.00 0.00 0.00 77 1008.7
20260506031304 77 125 3.5 4.3 0.00 0.00 0.00 77 1008.5
20260506030802 77 136 4.3 6.1 0.00 0.00 0.00 77 1008.5
20260506030300 77 116 2.6 2.6 0.00 0.00 0.00 77 1008.3
20260506025757 77 90 3.5 5.2 0.00 0.00 0.00 77 1008.2
20260506025253 77 106 4.3 5.2 0.00 0.00 0.00 77 1008.3
20260506024750 77 126 5.2 6.1 0.00 0.00 0.00 77 1008.3
20260506024246 77 131 2.6 4.3 0.00 0.00 0.00 76 1008.3
20260506023742 77 151 2.6 2.6 0.00 0.00 0.00 76 1008.2
20260506023240 78 107 1.7 5.2 0.00 0.00 0.00 75 1008.1
20260506022736 78 127 3.5 4.3 0.00 0.00 0.00 75 1008.1
20260506022235 78 77 1.7 2.6 0.00 0.00 0.00 75 1007.8
20260506021732 78 93 3.5 5.2 0.00 0.00 0.00 75 1007.6
20260506021229 78 142 2.6 2.6 0.00 0.00 0.00 75 1007.6
20260506020726 78 121 1.7 2.6 0.00 0.00 0.00 75 1007.7
20260506020224 78 127 1.7 2.6 0.00 0.00 0.00 74 1007.7
20260506015721 78 110 1.7 2.6 0.00 0.00 0.00 74 1007.5
20260506015219 79 119 2.6 4.3 0.00 0.00 0.00 74 1007.6
20260506014715 79 86 2.6 2.6 0.00 0.00 0.00 73 1007.6
20260506014211 79 115 4.3 5.2 0.00 0.00 0.00 73 1007.4
20260506013709 79 119 1.7 1.7 0.00 0.00 0.00 73 1007.2
20260506013206 79 127 1.7 2.6 0.00 0.00 0.00 72 1007.1
20260506012702 80 134 2.6 4.3 0.00 0.00 0.00 71 1007.2
20260506012159 80 71 0.0 0.9 0.00 0.00 0.00 71 1007.3
20260506011657 80 103 2.6 2.6 0.00 0.00 0.00 70 1007.1
20260506011152 80 126 2.6 2.6 0.00 0.00 0.00 70 1006.9
20260506010651 81 133 1.7 2.6 0.00 0.00 0.00 69 1006.9
20260506010148 81 98 2.6 2.6 0.00 0.00 0.00 68 1006.7
20260506005645 81 99 0.9 0.9 0.00 0.00 0.00 68 1006.7
20260506005142 82 138 2.6 2.6 0.00 0.00 0.00 67 1006.6
20260506004638 82 87 0.0 0.9 0.00 0.00 0.00 67 1006.9
20260506004135 82 121 1.7 1.7 0.00 0.00 0.00 66 1006.9
20260506003632 83 81 0.9 0.9 0.00 0.00 0.00 66 1006.5
20260506003128 83 119 0.9 0.9 0.00 0.00 0.00 65 1006.9
20260506002624 83 79 1.7 1.7 0.00 0.00 0.00 65 1006.9
20260506002120 84 102 0.0 0.9 0.00 0.00 0.00 64 1006.7
20260506001616 84 111 1.7 1.7 0.00 0.00 0.00 63 1006.9
20260506001114 84 108 0.9 1.7 0.00 0.00 0.00 62 1006.7
20260506000611 85 103 3.5 4.3 0.00 0.00 0.00 61 1006.9
20260506000108 85 129 4.3 6.1 0.00 0.00 0.00 60 1007.1
20260505235606 86 49 1.7 1.7 0.00 0.00 0.00 60 1006.9
20260505235103 86 161 2.6 5.2 0.00 0.00 0.00 60 1007.0
20260505234600 86 72 0.9 0.9 0.00 0.00 0.00 61 1006.6
20260505234056 85 173 4.3 5.2 0.00 0.00 0.00 61 1006.5
20260505233554 85 106 2.6 4.3 0.00 0.00 0.00 61 1006.6
20260505233051 86 79 2.6 4.3 0.00 0.00 0.00 61 1006.6
20260505232549 86 77 0.9 1.7 0.00 0.00 0.00 61 1006.7
20260505232046 86 74 2.6 2.6 0.00 0.00 0.00 60 1006.3
20260505231543 87 164 3.5 5.2 0.00 0.00 0.00 59 1006.6
20260505231042 87 91 3.5 5.2 0.00 0.00 0.00 59 1006.7
20260505230539 87 154 4.3 7.0 0.00 0.00 0.00 59 1006.7
20260505230035 87 76 1.7 2.6 0.00 0.00 0.00 58 1006.6
20260505225532 87 239 4.3 6.1 0.00 0.00 0.00 58 1006.6
20260505225028 87 168 2.6 6.1 0.00 0.00 0.00 58 1006.6
20260505224525 87 149 4.3 5.2 0.00 0.00 0.00 58 1006.6
20260505224022 87 134 7.8 8.7 0.00 0.00 0.00 57 1006.7
20260505223520 88 63 5.2 7.0 0.00 0.00 0.00 56 1006.6
20260505223016 89 130 7.0 7.8 0.00 0.00 0.00 55 1006.4